Location: Roland
(31.1349°N, 85.4372°W)
Time: 12:23:55
(UTC+00:00)

X-37B - Pass Details

Date: 14 March 2021
Orbit: 380 x 394 km, 45.0° (Epoch: 07 April)

Event Time Altitude Azimuth Distance (km) Brightness Sun altitude
Rises 01:02:39 0° 279° (W) 2,263 6.3 -16.6°
Reaches altitude 10° 01:05:31 10° 308° (NW) 1,414 4.3 -17.2°
Maximum altitude 01:07:12 14° 340° (NNW) 1,227 3.4 -17.6°
Drops below altitude 10° 01:08:53 10° 12° (NNE) 1,420 3.4 -17.9°
Enters shadow 01:09:12 - 17° (NNE) 1,490 3.4 -18.0°
